Weather History for KVPZ - October, 2014

Change the Weather History Date:

Saturday, October 4, 2014

  Actual Average Record
Temperature  
Mean Temperature 41 °F 56 °F  
Max Temperature 45 °F 67 °F 85 °F (2005)
Min Temperature 37 °F 45 °F 33 °F (2004)
Degree Days  
Heating Degree Days 24 10  
Month to date heating degree days 43 37  
Since 1 July heating degree days 214 167  
Cooling Degree Days 0 1  
Month to date cooling degree days 3 4  
Year to date cooling degree days 611 706  
Moisture  
Dew Point 34 °F    
Average Humidity 76    
Maximum Humidity 93    
Minimum Humidity 56    
Precipitation  
Precipitation 0.01 in 0.10 in 0.78 in (2000)
Month to date precipitation 2.17 0.39  
Year to date precipitation 33.91 29.14  
Sea Level Pressure  
Sea Level Pressure 29.76 in    
Wind  
Wind Speed 15 mph (WSW)    
Max Wind Speed 23 mph    
Max Gust Speed 31 mph    
Visibility 10 miles    
Events Rain    
T = Trace of Precipitation, MM = Missing Value Source: NWS Daily Summary

Daily Weather History Graph

Daily Weather History Graph

Search for Another Location

Airport or City:

Trip Planner

Search our weather history database for the weather conditions in past years. The results will help you decide how hot, cold, wet, or windy it might be!

Date:

Astronomy

Oct. 04, 2014 Rise Set
Actual Time 6:47 AM CDT 6:24 PM CDT
Civil Twilight 6:20 AM CDT 6:52 PM CDT
Nautical Twilight 5:48 AM CDT 7:24 PM CDT
Astronomical Twilight 5:15 AM CDT 7:56 PM CDT
Moon 4:03 PM CDT (10/4) 2:12 AM CDT (10/4)
Length of Visible Light 12h 32m
Length of Day
11h 36m
Waxing Gibbous, 81% of the Moon is Illuminated
Oct 4
Waxing Gibbous
Oct 8
Full
Oct 15
Last Quarter
Oct 23
New
Oct 30
First Quarter

Hourly Weather History & Observations

Time (CDT) Temp. Windchill Dew Point Humidity Pressure Visibility Wind Dir Wind Speed Gust Speed Precip Events Conditions
12:56 AM 43.0 °F 36.8 °F 30.0 °F 60% 29.76 in 10.0 mi West 11.5 mph - N/A   Overcast
1:56 AM 43.0 °F 35.7 °F 28.9 °F 58% 29.76 in 10.0 mi West 15.0 mph 21.9 mph N/A   Overcast
2:56 AM 43.0 °F 35.7 °F 28.0 °F 56% 29.75 in 10.0 mi West 15.0 mph - N/A   Overcast
3:56 AM 42.1 °F 34.5 °F 28.0 °F 58% 29.75 in 10.0 mi WSW 15.0 mph 21.9 mph N/A   Overcast
4:56 AM 39.9 °F 32.5 °F 28.9 °F 65% 29.75 in 10.0 mi West 12.7 mph - N/A   Clear
5:56 AM 41.0 °F 33.1 °F 28.9 °F 62% 29.74 in 10.0 mi WSW 15.0 mph - N/A   Overcast
6:56 AM 39.9 °F 30.5 °F 28.9 °F 65% 29.74 in 10.0 mi WSW 19.6 mph 25.3 mph N/A   Mostly Cloudy
7:56 AM 39.9 °F 30.8 °F 28.0 °F 63% 29.73 in 10.0 mi WSW 18.4 mph 25.3 mph N/A   Mostly Cloudy
8:56 AM 37.9 °F 27.9 °F 33.1 °F 83% 29.74 in 10.0 mi WSW 19.6 mph 28.8 mph 0.00 in Rain Light Rain
9:07 AM 37.0 °F 27.0 °F 33.1 °F 86% 29.73 in 10.0 mi WSW 18.4 mph 28.8 mph 0.00 in Rain Light Rain
9:53 AM 37.4 °F 28.2 °F 35.6 °F 93% 29.73 in 10.0 mi WSW 16.1 mph - 0.00 in   Overcast
9:56 AM 37.0 °F 26.7 °F 34.0 °F 89% 29.74 in 10.0 mi WSW 19.6 mph 24.2 mph 0.00 in   Overcast
10:21 AM 37.9 °F 28.9 °F 34.0 °F 86% 29.73 in 10.0 mi WSW 16.1 mph - 0.00 in Rain Light Rain
10:51 AM 37.4 °F 28.5 °F 33.8 °F 87% 29.73 in 10.0 mi WSW 15.0 mph - 0.00 in Rain Light Rain
10:56 AM 37.9 °F 29.2 °F 34.0 °F 86% 29.75 in 10.0 mi WSW 15.0 mph - 0.00 in   Overcast
11:31 AM 37.9 °F 27.6 °F 35.1 °F 89% 29.73 in 10.0 mi WSW 20.7 mph 25.3 mph N/A   Overcast
11:56 AM 39.0 °F 31.0 °F 35.1 °F 86% 29.75 in 10.0 mi WSW 13.8 mph 25.3 mph N/A   Overcast
12:56 PM 39.0 °F 30.3 °F 36.0 °F 89% 29.75 in 10.0 mi WSW 16.1 mph 25.3 mph 0.00 in Rain Light Rain
1:08 PM 39.9 °F 32.1 °F 37.0 °F 89% 29.73 in 10.0 mi WSW 13.8 mph 26.5 mph 0.00 in Rain Light Rain
1:56 PM 41.0 °F 33.1 °F 37.9 °F 89% 29.74 in 10.0 mi WSW 15.0 mph 26.5 mph 0.00 in Rain Light Rain
2:06 PM 42.1 °F 33.6 °F 37.9 °F 85% 29.73 in 10.0 mi WSW 18.4 mph 24.2 mph 0.00 in Rain Light Rain
2:56 PM 43.0 °F 35.4 °F 39.0 °F 86% 29.75 in 10.0 mi West 16.1 mph 25.3 mph 0.01 in Rain Light Rain
3:56 PM 44.1 °F 35.4 °F 37.9 °F 79% 29.76 in 10.0 mi West 21.9 mph 28.8 mph 0.00 in Rain Light Rain
4:56 PM 45.0 °F 36.9 °F 37.0 °F 74% 29.78 in 10.0 mi WSW 20.7 mph 25.3 mph 0.00 in   Overcast
5:04 PM 45.0 °F 37.1 °F 36.0 °F 71% 29.76 in 10.0 mi WSW 19.6 mph - N/A   Overcast
5:27 PM 45.0 °F 37.6 °F 36.0 °F 71% 29.76 in 10.0 mi West 17.3 mph 24.2 mph N/A   Overcast
5:56 PM 45.0 °F 37.9 °F 35.1 °F 68% 29.78 in 10.0 mi West 16.1 mph 23.0 mph N/A   Overcast
6:56 PM 44.1 °F 37.7 °F 35.1 °F 71% 29.79 in 10.0 mi WSW 12.7 mph - N/A   Overcast
7:56 PM 44.1 °F 38.6 °F 35.1 °F 71% 29.80 in 10.0 mi WSW 10.4 mph - N/A   Overcast
8:56 PM 45.0 °F 39.3 °F 34.0 °F 65% 29.81 in 10.0 mi WSW 11.5 mph - N/A   Overcast
9:56 PM 44.1 °F 38.6 °F 34.0 °F 68% 29.81 in 10.0 mi SW 10.4 mph - N/A   Overcast
10:56 PM 41.0 °F 34.7 °F 34.0 °F 76% 29.81 in 10.0 mi SW 10.4 mph - N/A   Partly Cloudy
11:56 PM 39.0 °F 33.4 °F 33.1 °F 79% 29.80 in 10.0 mi SW 8.1 mph - N/A   Clear